LOT151 EPWA-LLBG

Flight info

Callsign LOT151
Flight time 3h 5m
Altitude 37000
Route EVINA M985 KOTEK DCT KENIN/N0448F370 DCT KARIL DCT TISAD DCT EMPOS DCT BIVBU DCT APROB DCT ADORU UG80 EKI UW81 YAYLA DCT EDISI UT39 TOMBI DCT IDAKU L35 PIKOG L609 ZUKKO
Aircraft B38M/M-SDE1FGHILORVWXY/HB1

Departure

Time 2026-05-06 18:23
Airport Warsaw Chopin Airport (EPWA)

Arrival

Time 2026-05-06 21:28
Airport Ben Gurion International Airport (LLBG)
Time Latitude Longitude Altitude Speed Heading
2026-05-06 17:48 52.16997 20.97141 360 ft 0 kts 72°
2026-05-06 18:12 52.16996 20.97136 354 ft 2 kts 72°
2026-05-06 18:13 52.16991 20.97110 362 ft 3 kts 72°
2026-05-06 18:13 52.16985 20.97078 361 ft 3 kts 72°
2026-05-06 18:13 52.16979 20.97050 359 ft 3 kts 72°
2026-05-06 18:13 52.16976 20.97020 362 ft 3 kts 101°
2026-05-06 18:14 52.16984 20.96994 363 ft 3 kts 135°
2026-05-06 18:14 52.16997 20.96977 362 ft 1 kts 150°
2026-05-06 18:14 52.17002 20.96973 361 ft 0 kts 150°
2026-05-06 18:17 52.16994 20.96980 360 ft 2 kts 150°
2026-05-06 18:17 52.16974 20.96998 361 ft 4 kts 150°
2026-05-06 18:17 52.16943 20.97028 359 ft 6 kts 150°
2026-05-06 18:18 52.16899 20.97067 357 ft 8 kts 151°
2026-05-06 18:18 52.16845 20.97114 360 ft 10 kts 153°
2026-05-06 18:18 52.16779 20.97169 354 ft 11 kts 152°
2026-05-06 18:18 52.16706 20.97241 356 ft 13 kts 153°
2026-05-06 18:19 52.16622 20.97310 359 ft 15 kts 154°
2026-05-06 18:19 52.16558 20.97435 360 ft 15 kts 114°
2026-05-06 18:19 52.16510 20.97597 359 ft 16 kts 114°
2026-05-06 18:19 52.16460 20.97773 354 ft 18 kts 115°
2026-05-06 18:20 52.16407 20.97964 358 ft 19 kts 114°
2026-05-06 18:20 52.16349 20.98167 358 ft 21 kts 115°
2026-05-06 18:20 52.16289 20.98384 357 ft 19 kts 117°
2026-05-06 18:20 52.16200 20.98452 354 ft 16 kts 204°
2026-05-06 18:21 52.16125 20.98329 354 ft 12 kts 271°
2026-05-06 18:21 52.16139 20.98264 354 ft 0 kts 295°
2026-05-06 18:22 52.16140 20.98260 355 ft 2 kts 295°
2026-05-06 18:22 52.16222 20.97965 361 ft 67 kts 294°
2026-05-06 18:22 52.16517 20.96907 359 ft 136 kts 294°
2026-05-06 18:22 52.16909 20.95466 476 ft 173 kts 292°
2026-05-06 18:23 52.17373 20.93539 1062 ft 192 kts 294°
2026-05-06 18:23 52.17957 20.91485 1860 ft 202 kts 296°
2026-05-06 18:23 52.18452 20.89298 2534 ft 217 kts 280°
2026-05-06 18:23 52.18375 20.86832 3321 ft 219 kts 258°
2026-05-06 18:24 52.18002 20.84344 4032 ft 233 kts 256°
2026-05-06 18:24 52.17567 20.81740 4767 ft 244 kts 253°
2026-05-06 18:24 52.17087 20.79098 5491 ft 254 kts 253°
2026-05-06 18:24 52.16594 20.76243 5931 ft 256 kts 254°
2026-05-06 18:25 52.16134 20.73488 6001 ft 255 kts 252°
2026-05-06 18:25 52.15372 20.70933 5983 ft 253 kts 232°
2026-05-06 18:25 52.14090 20.68907 6439 ft 254 kts 213°
2026-05-06 18:25 52.12482 20.67812 7335 ft 260 kts 194°
2026-05-06 18:26 52.10676 20.67331 8178 ft 264 kts 192°
2026-05-06 18:26 52.08826 20.66815 9074 ft 268 kts 193°
2026-05-06 18:26 52.07003 20.66292 9897 ft 272 kts 193°
2026-05-06 18:26 52.05066 20.65720 10411 ft 288 kts 193°
2026-05-06 18:27 52.03024 20.65096 10746 ft 308 kts 193°
2026-05-06 18:27 52.00867 20.64433 11195 ft 323 kts 193°
2026-05-06 18:27 51.98627 20.63750 11817 ft 330 kts 193°
2026-05-06 18:27 51.96397 20.63082 12633 ft 332 kts 193°
2026-05-06 18:28 51.94226 20.62434 13363 ft 336 kts 193°
2026-05-06 18:28 51.91885 20.61737 14102 ft 339 kts 193°
2026-05-06 18:28 51.89588 20.61056 14768 ft 342 kts 193°
2026-05-06 18:28 51.87236 20.60360 15479 ft 345 kts 193°
2026-05-06 18:29 51.84871 20.59662 16164 ft 348 kts 193°
2026-05-06 18:29 51.82479 20.58955 16833 ft 351 kts 193°
2026-05-06 18:29 51.80059 20.58240 17504 ft 354 kts 193°
2026-05-06 18:29 51.77627 20.57523 18153 ft 357 kts 193°
2026-05-06 18:30 51.75172 20.56799 18702 ft 361 kts 193°
2026-05-06 18:30 51.72697 20.56071 19276 ft 363 kts 193°
2026-05-06 18:30 51.70201 20.55338 19834 ft 366 kts 193°
2026-05-06 18:30 51.67684 20.54599 20372 ft 369 kts 193°
2026-05-06 18:31 51.65144 20.53855 20919 ft 372 kts 193°
2026-05-06 18:31 51.62690 20.53136 21425 ft 375 kts 193°
2026-05-06 18:31 51.60059 20.52367 21977 ft 378 kts 193°
2026-05-06 18:31 51.57461 20.51607 22481 ft 381 kts 193°
2026-05-06 18:32 51.54846 20.50845 23002 ft 384 kts 193°
2026-05-06 18:32 51.52214 20.50077 23487 ft 387 kts 193°
2026-05-06 18:32 51.49563 20.49306 23915 ft 389 kts 193°
2026-05-06 18:32 51.46890 20.48529 24351 ft 391 kts 193°
2026-05-06 18:33 51.44210 20.47751 24798 ft 392 kts 193°
2026-05-06 18:33 51.41516 20.46970 25211 ft 395 kts 193°
2026-05-06 18:33 51.38832 20.46190 25622 ft 397 kts 193°
2026-05-06 18:33 51.36214 20.45431 26021 ft 398 kts 194°
2026-05-06 18:34 51.34185 20.44837 26302 ft 400 kts 194°
2026-05-06 18:34 51.31457 20.44046 26717 ft 402 kts 194°
2026-05-06 18:34 51.28698 20.43251 27113 ft 404 kts 194°
2026-05-06 18:34 51.25960 20.42462 27500 ft 406 kts 194°
2026-05-06 18:35 51.23172 20.41659 27808 ft 409 kts 194°
2026-05-06 18:35 51.20360 20.40851 28103 ft 412 kts 195°
2026-05-06 18:35 51.17535 20.40043 28424 ft 415 kts 192°
2026-05-06 18:35 51.14639 20.39227 28755 ft 418 kts 192°
2026-05-06 18:36 51.11810 20.38422 29125 ft 420 kts 193°
2026-05-06 18:36 51.08934 20.37602 29458 ft 422 kts 193°
2026-05-06 18:36 51.06037 20.36776 29785 ft 424 kts 193°
2026-05-06 18:36 51.03131 20.35948 30088 ft 426 kts 193°
2026-05-06 18:37 51.00211 20.35117 30352 ft 428 kts 193°
2026-05-06 18:37 50.98222 20.34552 30530 ft 430 kts 193°
2026-05-06 18:37 50.94323 20.33446 30947 ft 430 kts 193°
2026-05-06 18:37 50.91374 20.32611 31296 ft 430 kts 194°
2026-05-06 18:38 50.88434 20.31780 31669 ft 430 kts 194°
2026-05-06 18:38 50.85483 20.30946 32027 ft 429 kts 194°
2026-05-06 18:38 50.82545 20.30117 32396 ft 429 kts 195°
2026-05-06 18:38 50.79616 20.29292 32762 ft 428 kts 195°
2026-05-06 18:39 50.76694 20.28470 33111 ft 428 kts 195°
2026-05-06 18:39 50.73852 20.27671 33437 ft 427 kts 196°
2026-05-06 18:39 50.70933 20.26851 33767 ft 427 kts 196°
2026-05-06 18:40 50.65124 20.26024 34329 ft 440 kts 178°
2026-05-06 18:40 50.62141 20.27316 34637 ft 452 kts 163°
2026-05-06 18:40 50.59267 20.29427 34790 ft 457 kts 161°
2026-05-06 18:41 50.54508 20.33006 34816 ft 456 kts 161°
2026-05-06 18:41 50.48813 20.37361 34791 ft 456 kts 160°
2026-05-06 18:42 50.42246 20.42388 34809 ft 458 kts 160°
2026-05-06 18:42 50.37447 20.46053 34815 ft 458 kts 160°
2026-05-06 18:43 50.31719 20.50417 34808 ft 458 kts 160°
2026-05-06 18:43 50.25994 20.54767 34809 ft 458 kts 160°
2026-05-06 18:44 50.20333 20.59056 34815 ft 458 kts 160°
2026-05-06 18:44 50.14626 20.63369 34816 ft 460 kts 160°
2026-05-06 18:45 50.08833 20.67735 34814 ft 460 kts 160°
2026-05-06 18:45 50.03066 20.72071 34818 ft 460 kts 160°
2026-05-06 18:46 49.97365 20.76344 34822 ft 460 kts 160°
2026-05-06 18:46 49.91594 20.80659 34812 ft 460 kts 160°
2026-05-06 18:47 49.85873 20.84926 34815 ft 461 kts 159°
2026-05-06 18:47 49.80076 20.89237 34840 ft 463 kts 159°
2026-05-06 18:48 49.74305 20.93517 34836 ft 463 kts 159°
2026-05-06 18:48 49.68542 20.97962 34842 ft 464 kts 157°
2026-05-06 18:49 49.62831 21.02600 34832 ft 464 kts 157°
2026-05-06 18:49 49.57106 21.07202 34858 ft 464 kts 157°
2026-05-06 18:50 49.51382 21.11790 34866 ft 467 kts 157°
2026-05-06 18:50 49.48514 21.14085 35117 ft 467 kts 157°
2026-05-06 18:50 49.45636 21.16382 35413 ft 466 kts 157°
2026-05-06 18:50 49.42767 21.18672 35724 ft 464 kts 157°
2026-05-06 18:51 49.39907 21.20951 36022 ft 463 kts 157°
2026-05-06 18:51 49.37051 21.23223 36302 ft 462 kts 157°
2026-05-06 18:51 49.34203 21.25488 36582 ft 460 kts 157°
2026-05-06 18:51 49.31410 21.27704 36812 ft 459 kts 157°
2026-05-06 18:52 49.28566 21.29957 36903 ft 460 kts 157°
2026-05-06 18:52 49.22899 21.34438 36864 ft 458 kts 157°
2026-05-06 18:53 49.17222 21.38918 36865 ft 460 kts 157°
2026-05-06 18:53 49.11539 21.43389 36874 ft 460 kts 157°
2026-05-06 18:54 49.05863 21.47843 36885 ft 460 kts 157°
2026-05-06 18:54 49.00166 21.52304 36878 ft 460 kts 157°
2026-05-06 18:55 48.94475 21.56747 36878 ft 460 kts 157°
2026-05-06 18:55 48.88806 21.61162 36890 ft 462 kts 157°
2026-05-06 18:56 48.83138 21.65564 36889 ft 462 kts 157°
2026-05-06 18:56 48.77452 21.69970 36886 ft 462 kts 157°
2026-05-06 18:57 48.71697 21.74417 36886 ft 461 kts 157°
2026-05-06 18:57 48.66017 21.78796 36892 ft 461 kts 157°
2026-05-06 18:58 48.60358 21.83146 36895 ft 461 kts 157°
2026-05-06 18:58 48.54634 21.87536 36893 ft 461 kts 157°
2026-05-06 18:59 48.48924 21.91905 36894 ft 461 kts 157°
2026-05-06 18:59 48.43203 21.96269 36894 ft 461 kts 157°
2026-05-06 19:00 48.37484 22.00622 36895 ft 461 kts 157°
2026-05-06 19:00 48.31751 22.04974 36907 ft 463 kts 157°
2026-05-06 19:01 48.26006 22.09326 36890 ft 463 kts 157°
2026-05-06 19:01 48.20257 22.13667 36903 ft 462 kts 157°
2026-05-06 19:02 48.14520 22.17990 36905 ft 462 kts 157°
2026-05-06 19:02 48.08778 22.22304 36908 ft 462 kts 157°
2026-05-06 19:03 48.03042 22.26604 36906 ft 464 kts 157°
2026-05-06 19:03 47.97261 22.30927 36906 ft 464 kts 157°
2026-05-06 19:04 47.91492 22.35230 36916 ft 463 kts 157°
2026-05-06 19:04 47.85738 22.39511 36920 ft 463 kts 157°
2026-05-06 19:05 47.79967 22.43779 36918 ft 462 kts 159°
2026-05-06 19:05 47.74051 22.47237 36912 ft 462 kts 162°
2026-05-06 19:06 47.68107 22.50608 36936 ft 462 kts 163°
2026-05-06 19:06 47.62110 22.53992 36940 ft 462 kts 163°
2026-05-06 19:07 47.56098 22.57375 36938 ft 462 kts 163°
2026-05-06 19:07 47.50249 22.61160 36965 ft 464 kts 159°
2026-05-06 19:08 47.44392 22.65161 36928 ft 463 kts 159°
2026-05-06 19:08 47.38522 22.69119 36948 ft 466 kts 159°
2026-05-06 19:09 47.32850 22.72933 36946 ft 465 kts 159°
2026-05-06 19:09 47.26961 22.76882 36948 ft 465 kts 159°
2026-05-06 19:10 47.21062 22.80829 36949 ft 465 kts 159°
2026-05-06 19:10 47.15189 22.84749 36950 ft 464 kts 159°
2026-05-06 19:11 47.09283 22.88682 36969 ft 468 kts 159°
2026-05-06 19:11 47.03358 22.92617 36967 ft 467 kts 159°
2026-05-06 19:12 46.97433 22.96543 36975 ft 467 kts 159°
2026-05-06 19:12 46.91515 23.00454 36975 ft 466 kts 159°
2026-05-06 19:13 46.85605 23.04352 36979 ft 466 kts 159°
2026-05-06 19:13 46.79698 23.08237 36983 ft 470 kts 159°
2026-05-06 19:14 46.73697 23.12174 36990 ft 470 kts 159°
2026-05-06 19:14 46.67780 23.16047 36980 ft 469 kts 159°
2026-05-06 19:15 46.61835 23.19929 36996 ft 468 kts 159°
2026-05-06 19:15 46.55886 23.23807 36991 ft 469 kts 159°
2026-05-06 19:16 46.49971 23.27649 36986 ft 472 kts 159°
2026-05-06 19:16 46.44001 23.31519 37000 ft 471 kts 159°
2026-05-06 19:17 46.38010 23.35393 36993 ft 471 kts 159°
2026-05-06 19:17 46.32021 23.39257 36990 ft 471 kts 159°
2026-05-06 19:18 46.26027 23.43116 36970 ft 472 kts 158°
2026-05-06 19:18 46.20002 23.46982 36977 ft 475 kts 158°
2026-05-06 19:19 46.13970 23.50846 36981 ft 474 kts 159°
2026-05-06 19:19 46.07953 23.54692 36975 ft 473 kts 159°
2026-05-06 19:20 46.02222 23.58344 36935 ft 475 kts 159°
2026-05-06 19:20 45.99238 23.60244 36714 ft 473 kts 158°
2026-05-06 19:20 45.96227 23.62158 36434 ft 475 kts 158°
2026-05-06 19:20 45.93268 23.64037 36153 ft 477 kts 159°
2026-05-06 19:21 45.90161 23.66008 35880 ft 477 kts 159°
2026-05-06 19:21 45.87128 23.67930 35633 ft 477 kts 159°
2026-05-06 19:21 45.84090 23.69853 35378 ft 478 kts 158°
2026-05-06 19:21 45.81043 23.71779 35115 ft 478 kts 158°
2026-05-06 19:22 45.78057 23.73810 35021 ft 479 kts 155°
2026-05-06 19:22 45.72074 23.78039 34991 ft 481 kts 156°
2026-05-06 19:23 45.66060 23.82246 35026 ft 481 kts 156°
2026-05-06 19:23 45.60097 23.86403 35025 ft 479 kts 156°
2026-05-06 19:24 45.54108 23.90571 35036 ft 479 kts 156°
2026-05-06 19:24 45.48118 23.94727 35038 ft 479 kts 156°
2026-05-06 19:25 45.42121 23.98880 35017 ft 480 kts 156°
2026-05-06 19:25 45.36174 24.02987 35021 ft 481 kts 156°
2026-05-06 19:26 45.30161 24.07132 35022 ft 481 kts 156°
2026-05-06 19:26 45.24141 24.11271 35039 ft 481 kts 156°
2026-05-06 19:27 45.18125 24.15396 35009 ft 481 kts 156°
2026-05-06 19:27 45.12099 24.19520 35022 ft 483 kts 156°
2026-05-06 19:28 45.06054 24.23646 35007 ft 482 kts 156°
2026-05-06 19:28 45.00006 24.27765 35008 ft 482 kts 156°
2026-05-06 19:29 44.93998 24.31849 34996 ft 482 kts 156°
2026-05-06 19:29 44.88019 24.36137 34994 ft 484 kts 154°
2026-05-06 19:30 44.83033 24.39725 34994 ft 484 kts 154°
2026-05-06 19:30 44.77026 24.44032 34987 ft 484 kts 154°
2026-05-06 19:31 44.71019 24.48329 34994 ft 484 kts 154°
2026-05-06 19:31 44.62037 24.54739 34986 ft 485 kts 154°
2026-05-06 19:32 44.56014 24.59023 34980 ft 485 kts 154°
2026-05-06 19:32 44.49992 24.63297 34981 ft 485 kts 154°
2026-05-06 19:33 44.43967 24.67563 34980 ft 485 kts 154°
2026-05-06 19:33 44.37945 24.71816 34975 ft 486 kts 154°
2026-05-06 19:34 44.31904 24.76074 34978 ft 487 kts 154°
2026-05-06 19:34 44.25883 24.80307 34971 ft 487 kts 154°
2026-05-06 19:35 44.19864 24.84529 34974 ft 486 kts 154°
2026-05-06 19:35 44.13865 24.88729 34973 ft 486 kts 154°
2026-05-06 19:36 44.07800 24.92963 34971 ft 488 kts 154°
2026-05-06 19:36 44.01724 24.97197 34968 ft 488 kts 154°
2026-05-06 19:37 43.95722 25.01579 34968 ft 488 kts 151°
2026-05-06 19:37 43.89795 25.06206 34970 ft 489 kts 151°
2026-05-06 19:38 43.83846 25.10797 34968 ft 490 kts 151°
2026-05-06 19:38 43.77900 25.15372 34965 ft 490 kts 151°
2026-05-06 19:39 43.71944 25.19946 34966 ft 490 kts 151°
2026-05-06 19:39 43.65984 25.24510 34969 ft 490 kts 151°
2026-05-06 19:40 43.60017 25.29070 34973 ft 490 kts 151°
2026-05-06 19:40 43.54052 25.33618 34968 ft 490 kts 151°
2026-05-06 19:41 43.48076 25.38165 34973 ft 490 kts 151°
2026-05-06 19:41 43.42109 25.42693 34994 ft 490 kts 151°
2026-05-06 19:42 43.36108 25.47237 34993 ft 493 kts 151°
2026-05-06 19:42 43.30108 25.51771 35010 ft 493 kts 151°
2026-05-06 19:43 43.24105 25.56296 35013 ft 493 kts 152°
2026-05-06 19:43 43.18093 25.60817 35018 ft 493 kts 152°
2026-05-06 19:44 43.12085 25.65326 35024 ft 493 kts 152°
2026-05-06 19:44 43.06133 25.69783 35017 ft 493 kts 152°
2026-05-06 19:45 43.00107 25.74284 35016 ft 493 kts 152°
2026-05-06 19:45 42.94161 25.78717 35006 ft 493 kts 152°
2026-05-06 19:46 42.88141 25.83195 35018 ft 493 kts 152°
2026-05-06 19:46 42.82108 25.87670 35027 ft 493 kts 152°
2026-05-06 19:47 42.76083 25.92131 35029 ft 493 kts 152°
2026-05-06 19:47 42.70089 25.96560 35015 ft 495 kts 152°
2026-05-06 19:48 42.64042 26.01017 35051 ft 495 kts 152°
2026-05-06 19:48 42.57991 26.05467 35052 ft 494 kts 152°
2026-05-06 19:49 42.51943 26.09905 35041 ft 495 kts 152°
2026-05-06 19:49 42.45890 26.14337 35047 ft 496 kts 152°
2026-05-06 19:50 42.39809 26.18780 35038 ft 496 kts 152°
2026-05-06 19:50 42.33738 26.23206 35038 ft 496 kts 152°
2026-05-06 19:51 42.27656 26.27630 35060 ft 496 kts 152°
2026-05-06 19:51 42.21570 26.32046 35044 ft 498 kts 152°
2026-05-06 19:52 42.15472 26.36462 35038 ft 497 kts 152°
2026-05-06 19:52 42.09375 26.40867 35042 ft 497 kts 152°
2026-05-06 19:53 42.03274 26.45267 35046 ft 499 kts 152°
2026-05-06 19:53 41.97148 26.49676 35040 ft 500 kts 152°
2026-05-06 19:54 41.91014 26.54081 35043 ft 500 kts 152°
2026-05-06 19:54 41.85055 26.58869 35056 ft 499 kts 144°
2026-05-06 19:55 41.79356 26.64233 35038 ft 502 kts 144°
2026-05-06 19:55 41.73687 26.69584 35048 ft 503 kts 144°
2026-05-06 19:56 41.68017 26.74929 35054 ft 503 kts 144°
2026-05-06 19:56 41.62293 26.80312 35052 ft 503 kts 144°
2026-05-06 19:57 41.56576 26.85675 35050 ft 503 kts 144°
2026-05-06 19:57 41.50839 26.91048 35054 ft 505 kts 144°
2026-05-06 19:58 41.45084 26.96425 35056 ft 505 kts 144°
2026-05-06 19:58 41.39330 27.01788 35064 ft 505 kts 144°
2026-05-06 19:59 41.33567 27.07148 35063 ft 505 kts 144°
2026-05-06 19:59 41.27801 27.12500 35039 ft 505 kts 144°
2026-05-06 20:00 41.22037 27.17839 35086 ft 505 kts 144°
2026-05-06 20:00 41.16382 27.23062 35076 ft 508 kts 144°
2026-05-06 20:01 41.10539 27.28447 35064 ft 508 kts 144°
2026-05-06 20:01 41.04780 27.33745 35082 ft 508 kts 144°
2026-05-06 20:02 40.98977 27.39071 35081 ft 508 kts 144°
2026-05-06 20:02 40.92908 27.43790 35083 ft 506 kts 160°
2026-05-06 20:03 40.86355 27.47270 35054 ft 507 kts 159°
2026-05-06 20:03 40.79782 27.50771 35059 ft 510 kts 159°
2026-05-06 20:04 40.73209 27.54257 35079 ft 510 kts 159°
2026-05-06 20:04 40.66618 27.57746 35067 ft 510 kts 159°
2026-05-06 20:05 40.60026 27.61226 35067 ft 510 kts 159°
2026-05-06 20:05 40.53446 27.64694 35080 ft 510 kts 159°
2026-05-06 20:06 40.46862 27.68155 35080 ft 510 kts 159°
2026-05-06 20:06 40.40279 27.71609 35079 ft 510 kts 159°
2026-05-06 20:07 40.33694 27.75057 35060 ft 509 kts 159°
2026-05-06 20:07 40.27122 27.78491 35073 ft 509 kts 159°
2026-05-06 20:08 40.20539 27.81923 35075 ft 509 kts 159°
2026-05-06 20:08 40.13966 27.85342 35079 ft 509 kts 159°
2026-05-06 20:09 40.07383 27.88761 35074 ft 509 kts 159°
2026-05-06 20:09 40.00841 27.92150 35072 ft 509 kts 159°
2026-05-06 20:10 39.94274 27.95547 35083 ft 509 kts 159°
2026-05-06 20:10 39.87737 27.98924 35081 ft 508 kts 158°
2026-05-06 20:11 39.81540 28.03293 35096 ft 508 kts 150°
2026-05-06 20:11 39.75410 28.07859 35111 ft 509 kts 150°
2026-05-06 20:12 39.69246 28.12451 35098 ft 511 kts 150°
2026-05-06 20:12 39.63079 28.17037 35085 ft 511 kts 150°
2026-05-06 20:13 39.56926 28.21604 35100 ft 511 kts 150°
2026-05-06 20:13 39.50794 28.26146 35088 ft 510 kts 150°
2026-05-06 20:14 39.44624 28.30705 35097 ft 510 kts 150°
2026-05-06 20:14 39.38466 28.35247 35109 ft 510 kts 150°
2026-05-06 20:15 39.32434 28.39687 35114 ft 512 kts 150°
2026-05-06 20:15 39.26239 28.44236 35118 ft 512 kts 150°
2026-05-06 20:16 39.20038 28.48782 35109 ft 512 kts 150°
2026-05-06 20:16 39.14897 28.52545 35123 ft 513 kts 150°
2026-05-06 20:17 39.08696 28.57074 35113 ft 512 kts 150°
2026-05-06 20:17 39.02493 28.61594 35131 ft 513 kts 150°
2026-05-06 20:18 38.96296 28.66101 35130 ft 512 kts 150°
2026-05-06 20:18 38.90074 28.70617 35103 ft 514 kts 150°
2026-05-06 20:19 38.83862 28.75118 35120 ft 513 kts 151°
2026-05-06 20:19 38.77648 28.79610 35122 ft 513 kts 151°
2026-05-06 20:20 38.71438 28.84090 35130 ft 513 kts 151°
2026-05-06 20:20 38.65215 28.88571 35120 ft 513 kts 151°
2026-05-06 20:21 38.59001 28.93036 35130 ft 512 kts 151°
2026-05-06 20:21 38.52790 28.97491 35121 ft 513 kts 151°
2026-05-06 20:22 38.46556 29.01952 35118 ft 514 kts 151°
2026-05-06 20:22 38.40315 29.06410 35117 ft 514 kts 151°
2026-05-06 20:23 38.34077 29.10857 35118 ft 513 kts 151°
2026-05-06 20:23 38.27851 29.15286 35123 ft 513 kts 151°
2026-05-06 20:24 38.21615 29.19713 35119 ft 513 kts 151°
2026-05-06 20:24 38.15374 29.24136 35119 ft 513 kts 151°
2026-05-06 20:25 38.09147 29.28540 35120 ft 513 kts 152°
2026-05-06 20:25 38.02898 29.32951 35122 ft 513 kts 152°
2026-05-06 20:26 37.96847 29.37213 35120 ft 513 kts 152°
2026-05-06 20:26 37.90507 29.41671 35129 ft 513 kts 152°
2026-05-06 20:27 37.84269 29.46048 35132 ft 513 kts 152°
2026-05-06 20:27 37.78025 29.50421 35132 ft 513 kts 152°
2026-05-06 20:28 37.71788 29.54781 35144 ft 513 kts 152°
2026-05-06 20:28 37.65577 29.59113 35128 ft 514 kts 152°
2026-05-06 20:29 37.59317 29.63472 35128 ft 513 kts 152°
2026-05-06 20:29 37.53074 29.67809 35144 ft 513 kts 152°
2026-05-06 20:30 37.43751 29.74273 35148 ft 512 kts 152°
2026-05-06 20:31 37.37510 29.78590 35149 ft 512 kts 152°
2026-05-06 20:31 37.31269 29.82898 35150 ft 510 kts 153°
2026-05-06 20:32 37.25076 29.87165 35145 ft 510 kts 153°
2026-05-06 20:32 37.18855 29.91442 35146 ft 511 kts 153°
2026-05-06 20:33 37.12624 29.95719 35144 ft 510 kts 153°
2026-05-06 20:33 37.06393 29.99990 35144 ft 510 kts 153°
2026-05-06 20:34 37.00170 30.04247 35145 ft 510 kts 153°
2026-05-06 20:34 36.93943 30.08498 35134 ft 510 kts 153°
2026-05-06 20:35 36.87712 30.12744 35142 ft 511 kts 153°
2026-05-06 20:35 36.81662 30.17428 35117 ft 513 kts 147°
2026-05-06 20:36 36.75759 30.22407 35120 ft 513 kts 147°
2026-05-06 20:36 36.69855 30.27401 35124 ft 513 kts 147°
2026-05-06 20:37 36.64003 30.32346 35137 ft 512 kts 147°
2026-05-06 20:37 36.58091 30.37327 35097 ft 512 kts 147°
2026-05-06 20:38 36.52197 30.42286 35081 ft 512 kts 147°
2026-05-06 20:38 36.46295 30.47241 35125 ft 513 kts 147°
2026-05-06 20:39 36.40387 30.52192 35101 ft 512 kts 147°
2026-05-06 20:39 36.34485 30.57131 35097 ft 512 kts 147°
2026-05-06 20:40 36.28575 30.62066 35062 ft 512 kts 148°
2026-05-06 20:40 36.22677 30.66982 35093 ft 510 kts 148°
2026-05-06 20:41 36.16795 30.71877 35091 ft 510 kts 148°
2026-05-06 20:41 36.10909 30.76765 35092 ft 510 kts 148°
2026-05-06 20:42 36.05020 30.81653 35094 ft 510 kts 146°
2026-05-06 20:42 35.99497 30.87171 35082 ft 511 kts 142°
2026-05-06 20:43 35.93976 30.92651 35095 ft 510 kts 143°
2026-05-06 20:43 35.88444 30.98093 35096 ft 510 kts 143°
2026-05-06 20:44 35.82899 31.03541 35097 ft 510 kts 143°
2026-05-06 20:44 35.77366 31.08967 35097 ft 510 kts 143°
2026-05-06 20:45 35.71815 31.14400 35097 ft 510 kts 143°
2026-05-06 20:45 35.66299 31.19790 35093 ft 509 kts 143°
2026-05-06 20:46 35.60717 31.25232 35109 ft 509 kts 143°
2026-05-06 20:46 35.55209 31.30593 35096 ft 509 kts 143°
2026-05-06 20:47 35.49619 31.36025 35094 ft 509 kts 143°
2026-05-06 20:47 35.44113 31.41365 35098 ft 509 kts 143°
2026-05-06 20:48 35.38551 31.46749 35083 ft 508 kts 144°
2026-05-06 20:48 35.33035 31.52080 35098 ft 508 kts 144°
2026-05-06 20:49 35.27479 31.57440 35100 ft 508 kts 144°
2026-05-06 20:49 35.21927 31.62785 35100 ft 508 kts 144°
2026-05-06 20:50 35.16372 31.68125 35100 ft 508 kts 144°
2026-05-06 20:50 35.10809 31.73463 35073 ft 508 kts 144°
2026-05-06 20:51 35.05263 31.78774 35107 ft 506 kts 144°
2026-05-06 20:51 34.99716 31.84078 35103 ft 507 kts 144°
2026-05-06 20:52 34.94157 31.89382 35098 ft 507 kts 144°
2026-05-06 20:52 34.88600 31.94676 35100 ft 507 kts 145°
2026-05-06 20:53 34.83035 31.99969 35096 ft 507 kts 145°
2026-05-06 20:53 34.77487 32.05235 35098 ft 505 kts 145°
2026-05-06 20:54 34.71952 32.10480 35100 ft 504 kts 145°
2026-05-06 20:54 34.66424 32.15711 35100 ft 504 kts 145°
2026-05-06 20:55 34.60889 32.20937 35108 ft 504 kts 145°
2026-05-06 20:55 34.55363 32.26146 35101 ft 504 kts 145°
2026-05-06 20:56 34.49868 32.31318 35082 ft 503 kts 146°
2026-05-06 20:56 34.44357 32.36496 35099 ft 500 kts 146°
2026-05-06 20:57 34.38864 32.41648 35102 ft 500 kts 146°
2026-05-06 20:57 34.33362 32.46800 35102 ft 500 kts 146°
2026-05-06 20:58 34.27862 32.51941 35099 ft 500 kts 146°
2026-05-06 20:58 34.22362 32.57075 35099 ft 500 kts 146°
2026-05-06 20:59 34.16873 32.62190 35089 ft 497 kts 146°
2026-05-06 20:59 34.11412 32.67270 35098 ft 495 kts 146°
2026-05-06 21:00 34.05776 32.71977 35120 ft 491 kts 152°
2026-05-06 21:00 33.99974 32.76328 35103 ft 491 kts 153°
2026-05-06 21:01 33.94162 32.80658 35100 ft 491 kts 153°
2026-05-06 21:01 33.88351 32.84977 35092 ft 490 kts 153°
2026-05-06 21:02 33.82573 32.89268 35094 ft 487 kts 153°
2026-05-06 21:02 33.76818 32.93534 35101 ft 486 kts 153°
2026-05-06 21:03 33.71056 32.97797 35099 ft 486 kts 153°
2026-05-06 21:03 33.65302 33.02048 35102 ft 486 kts 153°
2026-05-06 21:04 33.60510 33.05584 35102 ft 486 kts 153°
2026-05-06 21:04 33.54777 33.09808 35102 ft 486 kts 153°
2026-05-06 21:05 33.49011 33.14048 35080 ft 486 kts 153°
2026-05-06 21:05 33.46128 33.16166 34257 ft 489 kts 153°
2026-05-06 21:05 33.43211 33.18308 33143 ft 497 kts 153°
2026-05-06 21:05 33.40251 33.20479 32035 ft 502 kts 153°
2026-05-06 21:06 33.37280 33.22657 30965 ft 497 kts 153°
2026-05-06 21:06 33.34352 33.24802 29949 ft 492 kts 153°
2026-05-06 21:06 33.31449 33.26926 28822 ft 487 kts 153°
2026-05-06 21:06 33.28590 33.29017 28041 ft 476 kts 153°
2026-05-06 21:07 33.25803 33.31052 27609 ft 466 kts 153°
2026-05-06 21:07 33.23052 33.33061 27061 ft 462 kts 153°
2026-05-06 21:07 33.20312 33.35059 26487 ft 460 kts 153°
2026-05-06 21:07 33.17584 33.37048 25938 ft 458 kts 153°
2026-05-06 21:08 33.14872 33.39024 25395 ft 456 kts 153°
2026-05-06 21:08 33.12204 33.40965 24861 ft 454 kts 153°
2026-05-06 21:08 33.09516 33.42921 24327 ft 452 kts 153°
2026-05-06 21:08 33.06834 33.44870 23793 ft 451 kts 153°
2026-05-06 21:09 33.04162 33.46811 23163 ft 449 kts 152°
2026-05-06 21:09 33.01507 33.48738 22640 ft 445 kts 152°
2026-05-06 21:09 32.98878 33.50645 22137 ft 440 kts 152°
2026-05-06 21:09 32.96272 33.52534 21643 ft 436 kts 152°
2026-05-06 21:10 32.93703 33.54395 21157 ft 432 kts 152°
2026-05-06 21:10 32.91155 33.56239 20685 ft 428 kts 152°
2026-05-06 21:10 32.88619 33.58074 20216 ft 425 kts 152°
2026-05-06 21:10 32.86104 33.59892 19669 ft 423 kts 152°
2026-05-06 21:11 32.83577 33.61725 18977 ft 426 kts 150°
2026-05-06 21:11 32.81304 33.63994 18440 ft 429 kts 135°
2026-05-06 21:11 32.79259 33.66543 17948 ft 424 kts 136°
2026-05-06 21:11 32.77224 33.69033 17518 ft 418 kts 137°
2026-05-06 21:12 32.75215 33.71506 17099 ft 413 kts 136°
2026-05-06 21:12 32.73233 33.73947 16682 ft 408 kts 137°
2026-05-06 21:12 32.71280 33.76353 16275 ft 404 kts 137°
2026-05-06 21:12 32.69337 33.78745 15846 ft 400 kts 137°
2026-05-06 21:13 32.67414 33.81110 15427 ft 397 kts 137°
2026-05-06 21:13 32.65535 33.83421 15018 ft 393 kts 136°
2026-05-06 21:13 32.63647 33.85741 14628 ft 390 kts 136°
2026-05-06 21:13 32.61770 33.88046 14211 ft 387 kts 136°
2026-05-06 21:14 32.59908 33.90332 13786 ft 385 kts 136°
2026-05-06 21:14 32.58052 33.92609 13331 ft 382 kts 136°
2026-05-06 21:14 32.56225 33.94854 12930 ft 371 kts 135°
2026-05-06 21:14 32.54499 33.97014 12652 ft 357 kts 136°
2026-05-06 21:15 32.52795 33.99143 12429 ft 355 kts 136°
2026-05-06 21:15 32.51100 34.01259 12147 ft 353 kts 135°
2026-05-06 21:15 32.49413 34.03362 11871 ft 351 kts 135°
2026-05-06 21:15 32.47742 34.05445 11596 ft 346 kts 135°
2026-05-06 21:16 32.46098 34.07493 11326 ft 340 kts 135°
2026-05-06 21:16 32.44477 34.09511 11070 ft 335 kts 135°
2026-05-06 21:16 32.42892 34.11504 10808 ft 330 kts 132°
2026-05-06 21:16 32.41590 34.13722 10519 ft 327 kts 123°
2026-05-06 21:17 32.40357 34.15962 10266 ft 322 kts 124°
2026-05-06 21:17 32.39120 34.18150 10021 ft 317 kts 125°
2026-05-06 21:17 32.37895 34.20291 9754 ft 313 kts 125°
2026-05-06 21:17 32.36679 34.22400 9496 ft 308 kts 125°
2026-05-06 21:18 32.35480 34.24469 9255 ft 302 kts 125°
2026-05-06 21:18 32.34298 34.26500 9035 ft 297 kts 125°
2026-05-06 21:18 32.33137 34.28497 8794 ft 292 kts 125°
2026-05-06 21:18 32.32004 34.30468 8521 ft 289 kts 124°
2026-05-06 21:19 32.30882 34.32419 8280 ft 285 kts 124°
2026-05-06 21:19 32.29777 34.34340 8044 ft 280 kts 124°
2026-05-06 21:19 32.28688 34.36229 7810 ft 277 kts 124°
2026-05-06 21:19 32.27605 34.38110 7581 ft 277 kts 124°
2026-05-06 21:20 32.26515 34.39998 7349 ft 277 kts 124°
2026-05-06 21:20 32.25444 34.41855 7112 ft 277 kts 124°
2026-05-06 21:20 32.24363 34.43726 6876 ft 276 kts 124°
2026-05-06 21:20 32.23271 34.45617 6634 ft 274 kts 124°
2026-05-06 21:21 32.22212 34.47443 6343 ft 272 kts 124°
2026-05-06 21:21 32.21146 34.49280 6067 ft 270 kts 124°
2026-05-06 21:21 32.20094 34.51092 5815 ft 266 kts 124°
2026-05-06 21:21 32.19052 34.52888 5564 ft 263 kts 124°
2026-05-06 21:22 32.18024 34.54657 5328 ft 260 kts 124°
2026-05-06 21:22 32.17048 34.56335 5077 ft 253 kts 124°
2026-05-06 21:22 32.16125 34.58041 4877 ft 243 kts 120°
2026-05-06 21:22 32.15265 34.59780 4442 ft 248 kts 120°
2026-05-06 21:23 32.14385 34.61544 3952 ft 250 kts 120°
2026-05-06 21:23 32.13596 34.63120 3556 ft 248 kts 119°
2026-05-06 21:23 32.12719 34.64857 3147 ft 244 kts 120°
2026-05-06 21:23 32.11860 34.66525 3017 ft 231 kts 120°
2026-05-06 21:24 32.11054 34.68089 3039 ft 216 kts 120°
2026-05-06 21:24 32.10313 34.69523 3019 ft 203 kts 120°
2026-05-06 21:24 32.09590 34.70909 2966 ft 192 kts 120°
2026-05-06 21:24 32.08906 34.72230 2867 ft 188 kts 119°
2026-05-06 21:25 32.08226 34.73542 2653 ft 185 kts 120°
2026-05-06 21:25 32.07563 34.74825 2442 ft 185 kts 120°
2026-05-06 21:25 32.06905 34.76095 2228 ft 177 kts 120°
2026-05-06 21:25 32.06297 34.77270 2003 ft 159 kts 119°
2026-05-06 21:26 32.05735 34.78355 1772 ft 154 kts 119°
2026-05-06 21:26 32.05178 34.79432 1566 ft 153 kts 120°
2026-05-06 21:26 32.04629 34.80493 1354 ft 151 kts 120°
2026-05-06 21:26 32.04083 34.81547 1154 ft 151 kts 120°
2026-05-06 21:27 32.03543 34.82590 949 ft 149 kts 120°
2026-05-06 21:27 32.03009 34.83625 748 ft 147 kts 119°
2026-05-06 21:27 32.02489 34.84643 546 ft 142 kts 121°
2026-05-06 21:27 32.01968 34.85632 360 ft 142 kts 120°
2026-05-06 21:28 32.01462 34.86606 164 ft 139 kts 121°
2026-05-06 21:28 32.00990 34.87512 119 ft 106 kts 122°
2026-05-06 21:28 32.00730 34.88000 119 ft 34 kts 125°
2026-05-06 21:28 32.00601 34.88251 123 ft 39 kts 125°
2026-05-06 21:29 32.00454 34.88510 128 ft 33 kts 129°
2026-05-06 21:29 32.00272 34.88660 125 ft 16 kts 163°
2026-05-06 21:29 32.00203 34.88598 126 ft 17 kts 287°
2026-05-06 21:29 32.00263 34.88471 126 ft 19 kts 301°
2026-05-06 21:30 32.00339 34.88328 125 ft 22 kts 303°
2026-05-06 21:30 32.00424 34.88166 120 ft 25 kts 302°
2026-05-06 21:30 32.00514 34.87998 123 ft 24 kts 302°
2026-05-06 21:30 32.00535 34.87882 119 ft 13 kts 227°
2026-05-06 21:31 32.00455 34.87826 122 ft 14 kts 214°
2026-05-06 21:31 32.00394 34.87775 118 ft 11 kts 214°
2026-05-06 21:31 32.00371 34.87699 122 ft 9 kts 273°
2026-05-06 21:31 32.00374 34.87638 121 ft 4 kts 264°
2026-05-06 21:32 32.00373 34.87621 121 ft 1 kts 262°
2026-05-06 21:32 32.00372 34.87620 121 ft 0 kts 262°